﻿測定場所 (Monitoring sites),日付 (Measurement date),時間 (Measurement time),線量率 最大値 (max) μGy/h,線量率 最小値 (min) μGy/h,線量率 平均値 (average) μGy/h,
大田 (Ota),2015-01-25,23:01～24:00,0.0443,0.0380,0.0408,
大田 (Ota),2015-01-25,22:01～23:00,0.0439,0.0370,0.0410,
大田 (Ota),2015-01-25,21:01～22:00,0.0433,0.0381,0.0410,
大田 (Ota),2015-01-25,20:01～21:00,0.0440,0.0373,0.0409,
大田 (Ota),2015-01-25,19:01～20:00,0.0436,0.0368,0.0406,
大田 (Ota),2015-01-25,18:01～19:00,0.0438,0.0368,0.0405,
大田 (Ota),2015-01-25,17:01～18:00,0.0451,0.0371,0.0404,
大田 (Ota),2015-01-25,16:01～17:00,0.0444,0.0377,0.0408,
大田 (Ota),2015-01-25,15:01～16:00,0.0447,0.0382,0.0409,
大田 (Ota),2015-01-25,14:01～15:00,0.0441,0.0376,0.0408,
大田 (Ota),2015-01-25,13:01～14:00,0.0450,0.0375,0.0408,
大田 (Ota),2015-01-25,12:01～13:00,0.0438,0.0365,0.0409,
大田 (Ota),2015-01-25,11:01～12:00,0.0439,0.0371,0.0411,
大田 (Ota),2015-01-25,10:01～11:00,0.0445,0.0368,0.0413,
大田 (Ota),2015-01-25,09:01～10:00,0.0446,0.0379,0.0411,
大田 (Ota),2015-01-25,08:01～09:00,0.0447,0.0378,0.0411,
大田 (Ota),2015-01-25,07:01～08:00,0.0443,0.0382,0.0409,
大田 (Ota),2015-01-25,06:01～07:00,0.0442,0.0381,0.0411,
大田 (Ota),2015-01-25,05:01～06:00,0.0442,0.0374,0.0408,
大田 (Ota),2015-01-25,04:01～05:00,0.0436,0.0377,0.0409,
大田 (Ota),2015-01-25,03:01～04:00,0.0442,0.0386,0.0413,
大田 (Ota),2015-01-25,02:01～03:00,0.0440,0.0381,0.0413,
大田 (Ota),2015-01-25,01:01～02:00,0.0444,0.0373,0.0407,
大田 (Ota),2015-01-25,00:01～01:00,0.0442,0.0382,0.0407,
大田 (Ota),2015-01-24,23:01～24:00,0.0428,0.0373,0.0403,
大田 (Ota),2015-01-24,22:01～23:00,0.0429,0.0366,0.0404,
大田 (Ota),2015-01-24,21:01～22:00,0.0444,0.0368,0.0401,
大田 (Ota),2015-01-24,20:01～21:00,0.0435,0.0366,0.0402,
大田 (Ota),2015-01-24,19:01～20:00,0.0448,0.0377,0.0403,
大田 (Ota),2015-01-24,18:01～19:00,0.0432,0.0376,0.0405,
大田 (Ota),2015-01-24,17:01～18:00,0.0430,0.0369,0.0401,
大田 (Ota),2015-01-24,16:01～17:00,0.0427,0.0372,0.0403,
大田 (Ota),2015-01-24,15:01～16:00,0.0441,0.0374,0.0408,
大田 (Ota),2015-01-24,14:01～15:00,0.0438,0.0374,0.0407,
大田 (Ota),2015-01-24,13:01～14:00,0.0430,0.0372,0.0403,
大田 (Ota),2015-01-24,12:01～13:00,0.0433,0.0378,0.0404,
大田 (Ota),2015-01-24,11:01～12:00,0.0441,0.0371,0.0406,
大田 (Ota),2015-01-24,10:01～11:00,0.0448,0.0368,0.0405,
大田 (Ota),2015-01-24,09:01～10:00,0.0431,0.0381,0.0405,
大田 (Ota),2015-01-24,08:01～09:00,0.0432,0.0364,0.0403,
大田 (Ota),2015-01-24,07:01～08:00,0.0428,0.0368,0.0403,
大田 (Ota),2015-01-24,06:01～07:00,0.0438,0.0368,0.0404,
大田 (Ota),2015-01-24,05:01～06:00,0.0430,0.0366,0.0403,
大田 (Ota),2015-01-24,04:01～05:00,0.0428,0.0361,0.0403,
大田 (Ota),2015-01-24,03:01～04:00,0.0430,0.0374,0.0403,
大田 (Ota),2015-01-24,02:01～03:00,0.0438,0.0368,0.0399,
大田 (Ota),2015-01-24,01:01～02:00,0.0443,0.0369,0.0405,
大田 (Ota),2015-01-24,00:01～01:00,0.0433,0.0372,0.0403,
大田 (Ota),2015-01-23,23:01～24:00,0.0431,0.0366,0.0400,
大田 (Ota),2015-01-23,22:01～23:00,0.0431,0.0366,0.0401,
大田 (Ota),2015-01-23,21:01～22:00,0.0438,0.0368,0.0401,
大田 (Ota),2015-01-23,20:01～21:00,0.0431,0.0367,0.0400,
大田 (Ota),2015-01-23,19:01～20:00,0.0441,0.0371,0.0400,
大田 (Ota),2015-01-23,18:01～19:00,0.0432,0.0368,0.0401,
大田 (Ota),2015-01-23,17:01～18:00,0.0429,0.0372,0.0403,
大田 (Ota),2015-01-23,16:01～17:00,0.0429,0.0367,0.0402,
大田 (Ota),2015-01-23,15:01～16:00,0.0426,0.0374,0.0403,
大田 (Ota),2015-01-23,14:01～15:00,0.0424,0.0367,0.0400,
大田 (Ota),2015-01-23,13:01～14:00,0.0444,0.0370,0.0410,
大田 (Ota),2015-01-23,12:01～13:00,0.0436,0.0373,0.0408,
大田 (Ota),2015-01-23,11:01～12:00,0.0441,0.0378,0.0408,
大田 (Ota),2015-01-23,10:01～11:00,0.0456,0.0372,0.0409,
大田 (Ota),2015-01-23,09:01～10:00,0.0443,0.0382,0.0410,
大田 (Ota),2015-01-23,08:01～09:00,0.0437,0.0367,0.0412,
大田 (Ota),2015-01-23,07:01～08:00,0.0472,0.0394,0.0421,
大田 (Ota),2015-01-23,06:01～07:00,0.0492,0.0411,0.0450,
大田 (Ota),2015-01-23,05:01～06:00,0.0665,0.0462,0.0546,
大田 (Ota),2015-01-23,04:01～05:00,0.0672,0.0585,0.0629,
大田 (Ota),2015-01-23,03:01～04:00,0.0626,0.0541,0.0579,
大田 (Ota),2015-01-23,02:01～03:00,0.0594,0.0470,0.0527,
大田 (Ota),2015-01-23,01:01～02:00,0.0530,0.0432,0.0480,
大田 (Ota),2015-01-23,00:01～01:00,0.0580,0.0479,0.0529,
大田 (Ota),2015-01-22,23:01～24:00,0.0516,0.0385,0.0439,
大田 (Ota),2015-01-22,22:01～23:00,0.0460,0.0377,0.0415,
大田 (Ota),2015-01-22,21:01～22:00,0.0439,0.0376,0.0409,
大田 (Ota),2015-01-22,20:01～21:00,0.0438,0.0387,0.0410,
大田 (Ota),2015-01-22,19:01～20:00,0.0447,0.0375,0.0412,
大田 (Ota),2015-01-22,18:01～19:00,0.0445,0.0384,0.0420,
大田 (Ota),2015-01-22,17:01～18:00,0.0456,0.0390,0.0430,
大田 (Ota),2015-01-22,16:01～17:00,0.0515,0.0426,0.0474,
大田 (Ota),2015-01-22,15:01～16:00,0.0566,0.0455,0.0493,
大田 (Ota),2015-01-22,14:01～15:00,0.0581,0.0496,0.0534,
大田 (Ota),2015-01-22,13:01～14:00,0.0559,0.0486,0.0522,
大田 (Ota),2015-01-22,12:01～13:00,0.0553,0.0466,0.0503,
大田 (Ota),2015-01-22,11:01～12:00,0.0503,0.0428,0.0474,
大田 (Ota),2015-01-22,10:01～11:00,0.0490,0.0409,0.0447,
大田 (Ota),2015-01-22,09:01～10:00,0.0446,0.0379,0.0408,
大田 (Ota),2015-01-22,08:01～09:00,0.0438,0.0379,0.0408,
大田 (Ota),2015-01-22,07:01～08:00,0.0436,0.0362,0.0403,
大田 (Ota),2015-01-22,06:01～07:00,0.0430,0.0376,0.0401,
大田 (Ota),2015-01-22,05:01～06:00,0.0442,0.0366,0.0402,
大田 (Ota),2015-01-22,04:01～05:00,0.0432,0.0377,0.0404,
大田 (Ota),2015-01-22,03:01～04:00,0.0434,0.0366,0.0400,
大田 (Ota),2015-01-22,02:01～03:00,0.0420,0.0368,0.0399,
大田 (Ota),2015-01-22,01:01～02:00,0.0436,0.0365,0.0403,
大田 (Ota),2015-01-22,00:01～01:00,0.0437,0.0367,0.0401,
大田 (Ota),2015-01-21,23:01～24:00,0.0425,0.0375,0.0402,
大田 (Ota),2015-01-21,22:01～23:00,0.0471,0.0380,0.0414,
大田 (Ota),2015-01-21,21:01～22:00,0.0477,0.0398,0.0439,
大田 (Ota),2015-01-21,20:01～21:00,0.0497,0.0414,0.0468,
大田 (Ota),2015-01-21,19:01～20:00,0.0520,0.0431,0.0472,
大田 (Ota),2015-01-21,18:01～19:00,0.0568,0.0470,0.0517,
大田 (Ota),2015-01-21,17:01～18:00,0.0596,0.0514,0.0551,
大田 (Ota),2015-01-21,16:01～17:00,0.0590,0.0495,0.0538,
大田 (Ota),2015-01-21,15:01～16:00,0.0545,0.0432,0.0490,
大田 (Ota),2015-01-21,14:01～15:00,0.0479,0.0397,0.0439,
大田 (Ota),2015-01-21,13:01～14:00,0.0454,0.0394,0.0421,
大田 (Ota),2015-01-21,12:01～13:00,0.0447,0.0377,0.0408,
大田 (Ota),2015-01-21,11:01～12:00,0.0440,0.0376,0.0410,
大田 (Ota),2015-01-21,10:01～11:00,0.0455,0.0385,0.0415,
大田 (Ota),2015-01-21,09:01～10:00,0.0464,0.0395,0.0426,
大田 (Ota),2015-01-21,08:01～09:00,0.0476,0.0401,0.0437,
大田 (Ota),2015-01-21,07:01～08:00,0.0449,0.0367,0.0413,
大田 (Ota),2015-01-21,06:01～07:00,0.0443,0.0383,0.0411,
大田 (Ota),2015-01-21,05:01～06:00,0.0442,0.0375,0.0410,
大田 (Ota),2015-01-21,04:01～05:00,0.0435,0.0369,0.0408,
大田 (Ota),2015-01-21,03:01～04:00,0.0435,0.0380,0.0405,
大田 (Ota),2015-01-21,02:01～03:00,0.0447,0.0382,0.0409,
大田 (Ota),2015-01-21,01:01～02:00,0.0433,0.0376,0.0405,
大田 (Ota),2015-01-21,00:01～01:00,0.0437,0.0370,0.0407,
大田 (Ota),2015-01-20,23:01～24:00,0.0429,0.0379,0.0408,
大田 (Ota),2015-01-20,22:01～23:00,0.0451,0.0387,0.0411,
大田 (Ota),2015-01-20,21:01～22:00,0.0437,0.0373,0.0409,
大田 (Ota),2015-01-20,20:01～21:00,0.0443,0.0386,0.0413,
大田 (Ota),2015-01-20,19:01～20:00,0.0444,0.0381,0.0412,
大田 (Ota),2015-01-20,18:01～19:00,0.0451,0.0383,0.0416,
大田 (Ota),2015-01-20,17:01～18:00,0.0456,0.0381,0.0413,
大田 (Ota),2015-01-20,16:01～17:00,0.0457,0.0373,0.0416,
大田 (Ota),2015-01-20,15:01～16:00,0.0450,0.0386,0.0415,
大田 (Ota),2015-01-20,14:01～15:00,0.0447,0.0389,0.0417,
大田 (Ota),2015-01-20,13:01～14:00,0.0449,0.0389,0.0415,
大田 (Ota),2015-01-20,12:01～13:00,0.0452,0.0388,0.0418,
大田 (Ota),2015-01-20,11:01～12:00,0.0445,0.0393,0.0417,
大田 (Ota),2015-01-20,10:01～11:00,0.0449,0.0389,0.0420,
大田 (Ota),2015-01-20,09:01～10:00,0.0478,0.0381,0.0421,
大田 (Ota),2015-01-20,08:01～09:00,0.0448,0.0377,0.0414,
大田 (Ota),2015-01-20,07:01～08:00,0.0439,0.0374,0.0412,
大田 (Ota),2015-01-20,06:01～07:00,0.0444,0.0373,0.0412,
大田 (Ota),2015-01-20,05:01～06:00,0.0445,0.0388,0.0412,
大田 (Ota),2015-01-20,04:01～05:00,0.0456,0.0371,0.0413,
大田 (Ota),2015-01-20,03:01～04:00,0.0447,0.0386,0.0412,
大田 (Ota),2015-01-20,02:01～03:00,0.0450,0.0387,0.0414,
大田 (Ota),2015-01-20,01:01～02:00,0.0443,0.0372,0.0410,
大田 (Ota),2015-01-20,00:01～01:00,0.0436,0.0379,0.0412,
大田 (Ota),2015-01-19,23:01～24:00,0.0447,0.0367,0.0408,
大田 (Ota),2015-01-19,22:01～23:00,0.0443,0.0372,0.0409,
大田 (Ota),2015-01-19,21:01～22:00,0.0437,0.0382,0.0415,
大田 (Ota),2015-01-19,20:01～21:00,0.0453,0.0385,0.0417,
大田 (Ota),2015-01-19,19:01～20:00,0.0436,0.0369,0.0409,
大田 (Ota),2015-01-19,18:01～19:00,0.0461,0.0365,0.0416,
大田 (Ota),2015-01-19,17:01～18:00,0.0448,0.0379,0.0410,
大田 (Ota),2015-01-19,16:01～17:00,0.0448,0.0386,0.0414,
大田 (Ota),2015-01-19,15:01～16:00,0.0446,0.0382,0.0413,
大田 (Ota),2015-01-19,14:01～15:00,0.0443,0.0373,0.0411,
大田 (Ota),2015-01-19,13:01～14:00,0.0432,0.0375,0.0409,
大田 (Ota),2015-01-19,12:01～13:00,0.0444,0.0380,0.0413,
大田 (Ota),2015-01-19,11:01～12:00,0.0449,0.0388,0.0419,
大田 (Ota),2015-01-19,10:01～11:00,0.0457,0.0372,0.0413,
大田 (Ota),2015-01-19,09:01～10:00,0.0453,0.0383,0.0412,
大田 (Ota),2015-01-19,08:01～09:00,0.0449,0.0383,0.0410,
大田 (Ota),2015-01-19,07:01～08:00,0.0434,0.0368,0.0406,
大田 (Ota),2015-01-19,06:01～07:00,0.0435,0.0383,0.0407,
大田 (Ota),2015-01-19,05:01～06:00,0.0434,0.0366,0.0403,
大田 (Ota),2015-01-19,04:01～05:00,0.0437,0.0372,0.0408,
大田 (Ota),2015-01-19,03:01～04:00,0.0436,0.0367,0.0407,
大田 (Ota),2015-01-19,02:01～03:00,0.0440,0.0377,0.0407,
大田 (Ota),2015-01-19,01:01～02:00,0.0440,0.0360,0.0399,
大田 (Ota),2015-01-19,00:01～01:00,0.0446,0.0367,0.0407,
